Weather History for KFQD - April, 2013

Change the Weather History Date:

Monday, April 29, 2013

  Actual Average (KAVL) Record (KAVL)
Temperature  
Mean Temperature 61 °F 59 °F  
Max Temperature 70 °F 71 °F 89 °F (1970)
Min Temperature 52 °F 47 °F 28 °F (1967)
Degree Days  
Heating Degree Days 4 7  
Month to date heating degree days 295  
Since 1 July heating degree days 4067  
Cooling Degree Days 0 0  
Month to date cooling degree days 0  
Year to date cooling degree days 1  
Growing Degree Days 11 (Base 50)    
Moisture  
Dew Point 55 °F    
Average Humidity 85    
Maximum Humidity 100    
Minimum Humidity 61    
Precipitation  
Precipitation 0.08 in 0.11 in 1.51 in (1963)
Month to date precipitation 3.22  
Year to date precipitation 14.48  
Snow  
Snow 0.00 in 0.00 in 0.10 in (1874)
Month to date snowfall 0.7  
Since 1 July snowfall 9.9  
Snow Depth -    
Sea Level Pressure  
Sea Level Pressure 30.02 in    
Wind  
Wind Speed 3 mph (SSE)    
Max Wind Speed 12 mph    
Max Gust Speed 17 mph    
Visibility 9 miles    
Events Rain    
T = Trace of Precipitation, MM = Missing Value Source: NWS Daily Summary

Daily Weather History Graph

Daily Weather History Graph

Search for Another Location

Airport or City:

Trip Planner

Search our weather history database for the weather conditions in past years. The results will help you decide how hot, cold, wet, or windy it might be!

Date:

Astronomy

Apr. 29, 2013 Rise Set
Actual Time 6:38 AM EDT 8:12 PM EDT
Civil Twilight 6:11 AM EDT 8:39 PM EDT
Nautical Twilight 5:38 AM EDT 9:12 PM EDT
Astronomical Twilight 5:04 AM EDT 9:46 PM EDT
Moon No Moon Rise 10:00 AM EDT (4/29)
Length of Visible Light 14h 28m
Length of Day
13h 34m
Waning Gibbous, 80% of the Moon is Illuminated
Apr 29
Waning Gibbous
May 2
Last Quarter
May 9
New
May 18
First Quarter
May 25
Full

Hourly Weather History & Observations

Time (EDT) Temp. Dew Point Humidity Pressure Visibility Wind Dir Wind Speed Gust Speed Precip Events Conditions
12:15 AM 52.5 °F 52.3 °F 99% 30.08 in 7.0 mi Calm Calm - 0.01 in Rain Light Rain
12:35 AM 52.7 °F 52.7 °F 100% 30.07 in 10.0 mi North 3.5 mph - 0.02 in Rain Light Rain
12:55 AM 52.7 °F 52.7 °F 100% 30.09 in 10.0 mi NNW 3.5 mph - 0.02 in Rain Light Rain
1:15 AM 53.1 °F 52.7 °F 99% 30.08 in 10.0 mi North 3.5 mph - 0.01 in Rain Light Rain
1:35 AM 53.1 °F 52.7 °F 99% 30.06 in 10.0 mi NNE 4.6 mph - 0.02 in Rain Light Rain
1:55 AM 53.2 °F 52.7 °F 98% 30.07 in 10.0 mi Calm Calm - 0.02 in   Overcast
2:15 AM 53.4 °F 52.9 °F 98% 30.07 in 10.0 mi Calm Calm - N/A   Drizzle
2:35 AM 53.1 °F 52.7 °F 99% 30.06 in 10.0 mi Calm Calm - 0.01 in Rain Light Rain
2:55 AM 52.9 °F 52.7 °F 99% 30.06 in 10.0 mi Calm Calm - 0.02 in Rain Light Rain
3:15 AM 52.7 °F 52.7 °F 100% 30.03 in 7.0 mi NNE 3.5 mph - 0.01 in Rain Rain
3:35 AM 52.7 °F 52.7 °F 100% 30.03 in 10.0 mi Calm Calm - 0.01 in   Light Drizzle
3:55 AM 52.7 °F 52.7 °F 100% 30.03 in 7.0 mi Calm Calm - 0.01 in Rain Rain
4:15 AM 52.7 °F 52.7 °F 100% 30.04 in 7.0 mi Calm Calm - N/A   Drizzle
4:35 AM 52.7 °F 52.7 °F 100% 30.04 in 7.0 mi Calm Calm - 0.01 in Rain Rain
4:55 AM 52.7 °F 52.7 °F 100% 30.04 in 10.0 mi Calm Calm - 0.01 in   Overcast
5:15 AM 52.7 °F 52.7 °F 100% 30.03 in 10.0 mi Calm Calm - N/A   Overcast
5:35 AM 52.7 °F 52.7 °F 100% 30.02 in 10.0 mi Calm Calm - N/A   Mostly Cloudy
5:55 AM 52.7 °F 52.3 °F 99% 30.02 in 10.0 mi Calm Calm - N/A   Scattered Clouds
6:15 AM 52.5 °F 52.2 °F 99% 30.03 in 7.0 mi Calm Calm - N/A   Mostly Cloudy
6:35 AM 52.3 °F 52.3 °F 100% 30.04 in 2.5 mi Calm Calm - N/A   Mostly Cloudy
6:55 AM 52.7 °F 52.3 °F 99% 30.05 in 7.0 mi Calm Calm - N/A Rain Light Rain
7:15 AM 52.7 °F 52.5 °F 99% 30.06 in 5.0 mi Calm Calm - N/A Rain Rain
7:35 AM 52.7 °F 52.7 °F 100% 30.06 in 5.0 mi Calm Calm - N/A Rain Rain
7:55 AM 52.9 °F 52.9 °F 100% 30.05 in 10.0 mi Calm Calm - N/A   Overcast
8:15 AM 53.6 °F 53.6 °F 100% 30.05 in 10.0 mi Calm Calm - N/A   Scattered Clouds
8:35 AM 54.1 °F 53.8 °F 99% 30.05 in 10.0 mi Calm Calm - N/A   Scattered Clouds
8:55 AM 54.5 °F 53.6 °F 97% 30.05 in 10.0 mi Calm Calm - N/A   Scattered Clouds
9:15 AM 55.2 °F 54.3 °F 97% 30.05 in 10.0 mi Calm Calm - N/A   Scattered Clouds
9:35 AM 56.3 °F 54.7 °F 94% 30.05 in 10.0 mi Calm Calm - N/A   Mostly Cloudy
9:55 AM 57.2 °F 55.6 °F 94% 30.05 in 10.0 mi Calm Calm - N/A   Overcast
10:15 AM 57.9 °F 55.0 °F 90% 30.05 in 10.0 mi Calm Calm - N/A   Mostly Cloudy
10:35 AM 59.2 °F 55.8 °F 88% 30.05 in 10.0 mi Calm Calm - N/A   Mostly Cloudy
10:55 AM 60.4 °F 55.9 °F 85% 30.06 in 10.0 mi SSE 3.5 mph - N/A   Overcast
11:15 AM 62.4 °F 57.0 °F 82% 30.06 in 10.0 mi Calm Calm - N/A   Mostly Cloudy
11:35 AM 63.9 °F 57.6 °F 80% 30.05 in 10.0 mi SSE 4.6 mph - N/A   Mostly Cloudy
11:55 AM 63.1 °F 57.4 °F 81% 30.05 in 10.0 mi SSE 5.8 mph - N/A   Mostly Cloudy
12:15 PM 64.6 °F 58.1 °F 79% 30.05 in 10.0 mi SSE 6.9 mph - N/A   Overcast
12:35 PM 64.0 °F 57.7 °F 80% 30.05 in 10.0 mi SSE 8.1 mph - N/A   Overcast
12:55 PM 66.4 °F 59.0 °F 77% 30.04 in 10.0 mi South 5.8 mph - N/A   Mostly Cloudy
1:15 PM 66.4 °F 58.5 °F 76% 30.03 in 10.0 mi SSW 6.9 mph - N/A   Mostly Cloudy
1:35 PM 65.5 °F 58.8 °F 79% 30.03 in 10.0 mi SSE 9.2 mph - N/A   Overcast
1:55 PM 66.6 °F 59.0 °F 77% 30.03 in 10.0 mi SSE 6.9 mph - N/A   Overcast
2:15 PM 66.9 °F 58.5 °F 74% 30.02 in 10.0 mi South 11.5 mph - N/A   Mostly Cloudy
2:35 PM 67.5 °F 58.5 °F 73% 30.01 in 10.0 mi South 9.2 mph - N/A   Scattered Clouds
2:55 PM 68.4 °F 58.3 °F 70% 30.01 in 10.0 mi South 8.1 mph 17.3 mph N/A   Mostly Cloudy
3:15 PM 68.5 °F 57.4 °F 67% 30.00 in 10.0 mi South 9.2 mph - N/A   Overcast
3:35 PM 69.1 °F 57.7 °F 67% 29.99 in 10.0 mi South 8.1 mph 16.1 mph N/A   Overcast
3:55 PM 68.9 °F 57.6 °F 67% 29.98 in 10.0 mi South 8.1 mph - N/A   Overcast
4:15 PM 68.5 °F 57.4 °F 67% 29.97 in 10.0 mi South 6.9 mph - N/A   Overcast
4:35 PM 68.9 °F 56.7 °F 65% 29.97 in 10.0 mi South 6.9 mph - N/A   Overcast
4:55 PM 68.9 °F 56.8 °F 65% 29.97 in 10.0 mi SSW 10.4 mph - N/A   Overcast
5:15 PM 69.3 °F 57.2 °F 65% 29.96 in 10.0 mi SSW 6.9 mph - N/A   Overcast
5:35 PM 69.6 °F 56.5 °F 63% 29.96 in 10.0 mi SSW 9.2 mph - N/A   Overcast
5:55 PM 69.4 °F 55.4 °F 61% 29.96 in 10.0 mi South 6.9 mph - N/A   Mostly Cloudy
6:15 PM 70.3 °F 56.1 °F 61% 29.96 in 10.0 mi South 8.1 mph - N/A   Mostly Cloudy
6:35 PM 70.2 °F 56.5 °F 62% 29.96 in 10.0 mi SE 5.8 mph - N/A   Mostly Cloudy
6:55 PM 69.6 °F 56.7 °F 63% 29.95 in 10.0 mi South 6.9 mph - N/A   Scattered Clouds
7:15 PM 69.1 °F 57.0 °F 65% 29.96 in 10.0 mi South 8.1 mph - N/A   Scattered Clouds
7:35 PM 68.5 °F 57.0 °F 67% 29.97 in 10.0 mi ESE 4.6 mph - N/A   Mostly Cloudy
7:55 PM 67.5 °F 57.0 °F 69% 29.97 in 10.0 mi ESE 4.6 mph - N/A   Mostly Cloudy
8:15 PM 66.9 °F 57.2 °F 71% 29.98 in 10.0 mi ESE 4.6 mph - N/A   Overcast
8:35 PM 66.2 °F 57.6 °F 74% 29.99 in 10.0 mi East 4.6 mph - N/A   Mostly Cloudy
8:55 PM 65.3 °F 57.4 °F 76% 29.99 in 10.0 mi East 4.6 mph - N/A   Scattered Clouds
9:15 PM 64.4 °F 57.6 °F 78% 30.00 in 10.0 mi East 4.6 mph - N/A   Scattered Clouds
9:35 PM 63.9 °F 57.4 °F 79% 30.01 in 10.0 mi East 3.5 mph - N/A   Scattered Clouds
9:55 PM 63.7 °F 57.2 °F 79% 30.01 in 10.0 mi East 4.6 mph - N/A   Mostly Cloudy
10:15 PM 63.5 °F 57.2 °F 80% 30.02 in 10.0 mi ESE 4.6 mph - N/A   Mostly Cloudy
10:35 PM 62.4 °F 57.4 °F 84% 30.02 in 10.0 mi SE 4.6 mph - N/A   Mostly Cloudy
10:55 PM 61.5 °F 57.6 °F 87% 30.02 in 10.0 mi SSE 3.5 mph - N/A   Overcast
11:35 PM 60.4 °F 57.4 °F 90% 30.02 in 10.0 mi ESE 3.5 mph - N/A   Scattered Clouds
11:55 PM 59.9 °F 57.2 °F 91% 30.01 in 7.0 mi Calm Calm - N/A   Clear